DEERH EDMA-EDMX

Flight info

Callsign DEERH
Flight time N/A
Altitude
Route
Aircraft DA40

Departure

Time 2026-05-07 19:24
Airport Augsburg Airport (EDMA)

Arrival

Time N/A
Airport Oberschleissheim Heliport (EDMX)
Time Latitude Longitude Altitude Speed Heading
2026-05-07 19:17 48.42283 10.93056 1516 ft 0 kts 188°
2026-05-07 19:19 48.42273 10.93061 1516 ft 5 kts 150°
2026-05-07 19:19 48.42272 10.93132 1516 ft 12 kts 68°
2026-05-07 19:19 48.42306 10.93281 1516 ft 18 kts 70°
2026-05-07 19:19 48.42348 10.93475 1516 ft 17 kts 68°
2026-05-07 19:20 48.42379 10.93612 1516 ft 16 kts 71°
2026-05-07 19:20 48.42419 10.93704 1516 ft 8 kts 341°
2026-05-07 19:20 48.42499 10.93670 1516 ft 15 kts 341°
2026-05-07 19:20 48.42544 10.93575 1516 ft 15 kts 249°
2026-05-07 19:21 48.42503 10.93397 1515 ft 20 kts 251°
2026-05-07 19:21 48.42454 10.93180 1515 ft 23 kts 252°
2026-05-07 19:21 48.42402 10.92943 1516 ft 24 kts 252°
2026-05-07 19:21 48.42358 10.92748 1516 ft 8 kts 251°
2026-05-07 19:22 48.42331 10.92625 1515 ft 16 kts 252°
2026-05-07 19:22 48.42295 10.92469 1515 ft 7 kts 246°
2026-05-07 19:22 48.42305 10.92401 1515 ft 0 kts 340°
2026-05-07 19:23 48.42307 10.92400 1515 ft 1 kts 343°
2026-05-07 19:23 48.42339 10.92389 1516 ft 7 kts 15°
2026-05-07 19:23 48.42411 10.92688 1515 ft 74 kts 75°
2026-05-07 19:23 48.42556 10.93503 1854 ft 86 kts 73°
2026-05-07 19:24 48.42716 10.94375 2276 ft 85 kts 71°
2026-05-07 19:24 48.43001 10.95148 2680 ft 90 kts 19°
2026-05-07 19:24 48.43675 10.94969 2849 ft 112 kts 343°
2026-05-07 19:24 48.44194 10.94215 2874 ft 110 kts 270°
2026-05-07 19:25 48.43988 10.93215 2893 ft 100 kts 251°
2026-05-07 19:25 48.43717 10.92230 2720 ft 103 kts 248°
2026-05-07 19:25 48.43441 10.91428 2587 ft 75 kts 242°
2026-05-07 19:25 48.43089 10.90842 2446 ft 78 kts 194°
2026-05-07 19:26 48.42539 10.90966 2255 ft 84 kts 155°
2026-05-07 19:26 48.42201 10.91686 1843 ft 89 kts 82°
2026-05-07 19:26 48.42373 10.92514 1516 ft 72 kts 69°
2026-05-07 19:26 48.42521 10.93174 1535 ft 82 kts 70°
2026-05-07 19:27 48.42726 10.94106 1833 ft 90 kts 70°
2026-05-07 19:27 48.43011 10.94935 2300 ft 90 kts 27°
2026-05-07 19:27 48.43651 10.94662 2549 ft 106 kts 328°
2026-05-07 19:27 48.43835 10.93698 2794 ft 108 kts 254°
2026-05-07 19:28 48.43546 10.92622 2801 ft 112 kts 246°
2026-05-07 19:28 48.43174 10.91550 2733 ft 119 kts 242°
2026-05-07 19:28 48.42736 10.90662 2401 ft 90 kts 193°
2026-05-07 19:28 48.42200 10.90875 2139 ft 76 kts 130°
2026-05-07 19:29 48.42169 10.91656 1773 ft 78 kts 66°
2026-05-07 19:29 48.42340 10.92366 1534 ft 64 kts 68°
2026-05-07 19:29 48.42460 10.92895 1518 ft 58 kts 75°
2026-05-07 19:29 48.42630 10.93701 1746 ft 90 kts 72°
2026-05-07 19:30 48.42806 10.94643 2150 ft 95 kts 72°
2026-05-07 19:30 48.43245 10.94780 2361 ft 114 kts 288°
2026-05-07 19:30 48.43152 10.93558 2334 ft 111 kts 266°
2026-05-07 19:30 48.42991 10.92475 2304 ft 98 kts 255°
2026-05-07 19:31 48.42792 10.91527 2294 ft 93 kts 251°
2026-05-07 19:31 48.42266 10.91221 2143 ft 99 kts 137°